Beaver Falls, PA

12:02 PM EST on November 21, 2019 (GMT -0500)
Beaver County

Weather History for KBVI - October, 2019

Change the Weather History Date:

Wednesday, October 23, 2019

  Actual Average Record
Temperature  
Mean Temperature 50 °F -  
Max Temperature 59 °F 57 °F 77 °F (2012)
Min Temperature 42 °F 41 °F 30 °F (1997)
Degree Days  
Heating Degree Days 14    
Moisture  
Dew Point 34 °F    
Average Humidity 56    
Maximum Humidity 87    
Minimum Humidity 31    
Precipitation  
Precipitation 0.00 in - - ()
Sea Level Pressure  
Sea Level Pressure 30.04 in    
Wind  
Wind Speed 8 mph (SW)    
Max Wind Speed 20 mph    
Max Gust Speed 29 mph    
Visibility 10 miles    
Events      
Averages and records for this station are not official NWS values.
T = Trace of Precipitation, MM = Missing Value Source: NWS Daily Summary

Daily Weather History Graph

Daily Weather History Graph

Search for Another Location

Airport or City:

Astronomy

Oct. 23, 2019 Rise Set
Actual Time 7:41 AM EDT 6:29 PM EDT
Civil Twilight 7:13 AM EDT 6:57 PM EDT
Nautical Twilight 6:41 AM EDT 7:29 PM EDT
Astronomical Twilight 6:09 AM EDT 8:01 PM EDT
Moon 1:55 AM EDT (10/23) 4:21 PM EDT (10/23)
Length of Visible Light 11h 44m
Length of Day
10h 48m
Waning Crescent, 27% of the Moon is Illuminated
Oct 23
Waning Crescent
Oct 27
New
Nov 4
First Quarter
Nov 12
Full
Nov 19
Last Quarter

Hourly Weather History & Observations

Time (EDT) Temp. Windchill Dew Point Humidity Pressure Visibility Wind Dir Wind Speed Gust Speed Precip Events Conditions
12:15 AM 50.0 °F - 39.2 °F 66% 29.88 in 10.0 mi SW 6.9 mph - N/A   Scattered Clouds
12:35 AM 50.2 °F - 39.2 °F 66% 29.89 in 10.0 mi WSW 6.9 mph - N/A   Scattered Clouds
12:36 AM 50.2 °F - 39.2 °F 66% 29.89 in 10.0 mi WSW 5.8 mph - N/A   Scattered Clouds
12:55 AM 49.3 °F - 39.2 °F 68% 29.88 in 10.0 mi West 3.5 mph - N/A   Scattered Clouds
12:56 AM 49.3 °F - 39.2 °F 68% 29.88 in 10.0 mi West 3.5 mph - N/A   Scattered Clouds
1:15 AM 48.0 °F - 39.2 °F 72% 29.89 in 10.0 mi West 3.5 mph - N/A   Clear
1:16 AM 47.8 °F - 39.2 °F 72% 29.89 in 10.0 mi West 3.5 mph - N/A   Clear
1:35 AM 47.5 °F - 39.2 °F 73% 29.89 in 10.0 mi WSW 4.6 mph - N/A   Scattered Clouds
1:36 AM 47.3 °F - 39.2 °F 73% 29.89 in 10.0 mi WSW 4.6 mph - N/A   Scattered Clouds
1:55 AM 47.7 °F - 39.6 °F 73% 29.89 in 10.0 mi WSW 5.8 mph - N/A   Mostly Cloudy
2:15 AM 48.0 °F - 39.6 °F 73% 29.89 in 10.0 mi SW 5.8 mph - N/A   Mostly Cloudy
2:16 AM 48.0 °F - 39.4 °F 72% 29.89 in 10.0 mi SW 5.8 mph - N/A   Mostly Cloudy
2:35 AM 47.1 °F - 39.2 °F 74% 29.89 in 10.0 mi WSW 3.5 mph - N/A   Scattered Clouds
2:55 AM 46.4 °F 44.3 °F 39.2 °F 76% 29.90 in 10.0 mi SW 4.6 mph - N/A   Clear
2:56 AM 46.4 °F 44.3 °F 39.2 °F 76% 29.90 in 10.0 mi SW 4.6 mph - N/A   Clear
3:15 AM 45.7 °F 43.4 °F 39.2 °F 78% 29.90 in 10.0 mi SW 4.6 mph - N/A   Clear
3:35 AM 45.1 °F 42.8 °F 39.0 °F 79% 29.90 in 10.0 mi SSW 4.6 mph - N/A   Clear
3:55 AM 44.8 °F 41.6 °F 38.8 °F 80% 29.90 in 10.0 mi SW 5.8 mph - N/A   Clear
4:15 AM 44.8 °F 41.6 °F 38.7 °F 79% 29.91 in 10.0 mi SSW 5.8 mph - N/A   Clear
4:35 AM 44.1 °F 41.5 °F 38.8 °F 82% 29.91 in 10.0 mi SSW 4.6 mph - N/A   Clear
4:55 AM 44.1 °F 41.5 °F 38.8 °F 82% 29.92 in 10.0 mi SSW 4.6 mph - N/A   Clear
4:56 AM 44.1 °F 40.8 °F 38.8 °F 82% 29.92 in 10.0 mi SSW 5.8 mph - N/A   Clear
5:15 AM 44.2 °F 41.0 °F 39.2 °F 82% 29.93 in 10.0 mi SW 5.8 mph - N/A   Clear
5:35 AM 45.0 °F 40.1 °F 39.2 °F 80% 29.93 in 10.0 mi SW 9.2 mph - N/A   Clear
5:55 AM 45.3 °F 40.6 °F 39.2 °F 79% 29.94 in 10.0 mi SW 9.2 mph - N/A   Clear
5:56 AM 45.1 °F 40.8 °F 39.2 °F 80% 29.94 in 10.0 mi SW 8.1 mph - N/A   Clear
6:15 AM 45.1 °F 40.8 °F 39.2 °F 80% 29.95 in 10.0 mi SW 8.1 mph - N/A   Clear
6:16 AM 45.1 °F 40.8 °F 39.2 °F 80% 29.95 in 10.0 mi SW 8.1 mph - N/A   Clear
6:35 AM 44.6 °F 40.7 °F 38.8 °F 80% 29.95 in 10.0 mi SW 6.9 mph - N/A   Clear
6:47 AM 44.6 °F 41.4 °F 39.2 °F 81% 29.96 in 10.0 mi SW 5.8 mph - N/A   Clear
6:55 AM 43.9 °F 40.5 °F 38.7 °F 82% 29.96 in 10.0 mi SW 5.8 mph - N/A   Clear
7:15 AM 43.3 °F 39.9 °F 38.5 °F 83% 29.97 in 10.0 mi SSW 5.8 mph - N/A   Clear
7:16 AM 43.2 °F 40.5 °F 38.5 °F 84% 29.97 in 10.0 mi SSW 4.6 mph - N/A   Clear
7:35 AM 43.0 °F 38.8 °F 38.5 °F 84% 29.97 in 10.0 mi SSW 6.9 mph - N/A   Clear
7:36 AM 42.8 °F 38.6 °F 38.5 °F 85% 29.97 in 10.0 mi SW 6.9 mph - N/A   Clear
7:47 AM 42.8 °F 38.6 °F 39.2 °F 87% 29.98 in 10.0 mi SW 6.9 mph - N/A   Clear
7:55 AM 43.0 °F 38.8 °F 38.5 °F 84% 29.98 in 10.0 mi SW 6.9 mph - N/A   Clear
8:15 AM 43.9 °F 39.3 °F 38.8 °F 82% 29.99 in 10.0 mi SW 8.1 mph - N/A   Clear
8:35 AM 45.1 °F 40.8 °F 39.0 °F 79% 30.00 in 10.0 mi SW 8.1 mph - N/A   Clear
8:36 AM 45.3 °F 40.6 °F 39.0 °F 79% 30.00 in 10.0 mi SW 9.2 mph - N/A   Clear
8:47 AM 46.4 °F 40.7 °F 39.2 °F 76% 30.00 in 10.0 mi SW 12.7 mph - N/A   Clear
8:55 AM 46.4 °F 41.9 °F 38.5 °F 74% 30.01 in 10.0 mi SW 9.2 mph - N/A   Clear
8:56 AM 46.6 °F - 38.5 °F 73% 30.01 in 10.0 mi SW 8.1 mph - N/A   Clear
9:15 AM 48.2 °F - 38.7 °F 70% 30.02 in 10.0 mi WSW 10.4 mph 16.1 mph N/A   Clear
9:16 AM 48.2 °F - 38.7 °F 70% 30.01 in 10.0 mi SW 10.4 mph 16.1 mph N/A   Clear
9:35 AM 49.1 °F - 38.3 °F 66% 30.03 in 10.0 mi WSW 8.1 mph 16.1 mph N/A   Clear
9:36 AM 49.1 °F - 38.3 °F 66% 30.03 in 10.0 mi SW 8.1 mph - N/A   Clear
9:47 AM 50.0 °F - 37.4 °F 62% 30.03 in 10.0 mi WSW 10.4 mph - N/A   Clear
9:56 AM 50.0 °F - 36.7 °F 60% 30.03 in 10.0 mi WSW 13.8 mph - N/A   Clear
10:15 AM 51.1 °F - 36.3 °F 57% 30.04 in 10.0 mi WSW 11.5 mph 17.3 mph N/A   Clear
10:35 AM 51.6 °F - 35.4 °F 54% 30.05 in 10.0 mi WSW 9.2 mph 20.7 mph N/A   Clear
10:36 AM 51.8 °F - 35.4 °F 54% 30.05 in 10.0 mi WSW 9.2 mph 20.7 mph N/A   Clear
10:47 AM 51.8 °F - 33.8 °F 50% 30.05 in 10.0 mi WSW 10.4 mph 23.0 mph N/A   Clear
10:55 AM 52.3 °F - 34.7 °F 51% 30.05 in 10.0 mi WSW 9.2 mph 21.9 mph N/A   Clear
11:15 AM 53.2 °F - 31.6 °F 44% 30.06 in 10.0 mi WSW 16.1 mph 27.6 mph N/A   Scattered Clouds
11:16 AM 53.2 °F - 31.6 °F 44% 30.06 in 10.0 mi WSW 19.6 mph 27.6 mph N/A   Scattered Clouds
11:35 AM 53.6 °F - 31.5 °F 43% 30.06 in 10.0 mi WSW 13.8 mph 25.3 mph N/A   Scattered Clouds
11:47 AM 55.4 °F - 32.0 °F 41% 30.07 in 10.0 mi West 15.0 mph 27.6 mph N/A   Clear
12:15 PM 55.4 °F - 30.0 °F 38% 30.08 in 10.0 mi West 16.1 mph 23.0 mph N/A   Scattered Clouds
12:35 PM 55.0 °F - 28.8 °F 37% 30.08 in 10.0 mi West 15.0 mph 28.8 mph N/A   Scattered Clouds
12:47 PM 55.4 °F - 28.4 °F 36% 30.08 in 10.0 mi West 16.1 mph 25.3 mph N/A   Clear
12:55 PM 54.7 °F - 28.9 °F 37% 30.08 in 10.0 mi West 15.0 mph 23.0 mph N/A   Clear
12:56 PM 54.9 °F - 29.1 °F 37% 30.08 in 10.0 mi West 13.8 mph 24.2 mph N/A   Clear
1:15 PM 57.2 °F - 29.8 °F 35% 30.07 in 10.0 mi West 8.1 mph 16.1 mph N/A   Scattered Clouds
1:16 PM 57.2 °F - 29.8 °F 35% 30.07 in 10.0 mi West 11.5 mph 17.3 mph N/A   Scattered Clouds
1:35 PM 57.2 °F - 28.6 °F 34% 30.07 in 10.0 mi West 15.0 mph 21.9 mph N/A   Scattered Clouds
1:47 PM 57.2 °F - 28.4 °F 33% 30.07 in 10.0 mi WSW 13.8 mph 23.0 mph N/A   Clear
1:55 PM 57.6 °F - 28.4 °F 33% 30.07 in 10.0 mi West 12.7 mph 21.9 mph N/A   Clear
1:56 PM 57.6 °F - 28.4 °F 33% 30.07 in 10.0 mi West 13.8 mph 21.9 mph N/A   Clear
2:15 PM 57.4 °F - 27.7 °F 32% 30.07 in 10.0 mi WSW 12.7 mph 25.3 mph N/A   Clear
2:35 PM 58.3 °F - 28.8 °F 33% 30.08 in 10.0 mi West 11.5 mph 19.6 mph N/A   Clear
2:47 PM 59.0 °F - 28.4 °F 31% 30.08 in 10.0 mi WSW 15.0 mph 24.2 mph N/A   Scattered Clouds
2:55 PM 58.5 °F - 29.5 °F 33% 30.08 in 10.0 mi West 9.2 mph 20.7 mph N/A   Scattered Clouds
2:56 PM 58.6 °F - 29.7 °F 33% 30.08 in 10.0 mi West 9.2 mph 20.7 mph N/A   Scattered Clouds
3:15 PM 59.0 °F - 28.4 °F 31% 30.09 in 10.0 mi West 9.2 mph 20.7 mph N/A   Scattered Clouds
3:16 PM 59.0 °F - 28.4 °F 31% 30.08 in 10.0 mi West 8.1 mph 20.7 mph N/A   Scattered Clouds
3:35 PM 58.8 °F - 29.1 °F 32% 30.09 in 10.0 mi SW 12.7 mph - N/A   Scattered Clouds
3:36 PM 59.0 °F - 29.5 °F 33% 30.09 in 10.0 mi WSW 11.5 mph - N/A   Scattered Clouds
3:47 PM 59.0 °F - 28.4 °F 31% 30.09 in 10.0 mi WSW 11.5 mph 18.4 mph N/A   Clear
3:55 PM 59.0 °F - 28.4 °F 31% 30.09 in 10.0 mi WSW 10.4 mph 20.7 mph N/A   Clear
4:15 PM 58.6 °F - 28.6 °F 32% 30.10 in 10.0 mi West 9.2 mph 25.3 mph N/A   Clear
4:35 PM 59.0 °F - 28.8 °F 32% 30.10 in 10.0 mi West 9.2 mph - N/A   Clear
4:36 PM 59.0 °F - 28.8 °F 32% 30.10 in 10.0 mi West 6.9 mph - N/A   Clear
4:47 PM 59.0 °F - 28.4 °F 31% 30.10 in 10.0 mi WSW 16.1 mph 20.7 mph N/A   Clear
4:55 PM 58.1 °F - 28.2 °F 32% 30.10 in 10.0 mi WSW 12.7 mph 20.7 mph N/A   Clear
4:56 PM 57.9 °F - 28.2 °F 32% 30.10 in 10.0 mi WSW 13.8 mph 18.4 mph N/A   Clear
5:15 PM 57.4 °F - 28.9 °F 34% 30.11 in 10.0 mi SW 5.8 mph - N/A   Clear
5:16 PM 57.4 °F - 29.1 °F 34% 30.11 in 10.0 mi WSW 5.8 mph - N/A   Clear
5:35 PM 57.2 °F - 29.1 °F 34% 30.11 in 10.0 mi WSW 8.1 mph - N/A   Clear
5:47 PM 57.2 °F - 28.4 °F 33% 30.12 in 10.0 mi WSW 6.9 mph - N/A   Clear
5:55 PM 56.3 °F - 29.1 °F 35% 30.11 in 10.0 mi SW 6.9 mph - N/A   Clear
5:56 PM 56.3 °F - 29.3 °F 36% 30.11 in 10.0 mi SW 6.9 mph - N/A   Clear
6:15 PM 54.7 °F - 30.2 °F 39% 30.12 in 10.0 mi SW 4.6 mph - N/A   Clear
6:16 PM 54.5 °F - 30.2 °F 39% 30.12 in 10.0 mi SW 3.5 mph - N/A   Clear
6:35 PM 52.9 °F - 30.6 °F 43% 30.12 in 10.0 mi SSW 4.6 mph - N/A   Clear
6:47 PM 51.8 °F - 30.2 °F 44% 30.13 in 10.0 mi SSW 4.6 mph - N/A   Clear
6:55 PM 52.0 °F - 30.4 °F 44% 30.13 in 10.0 mi SSW 4.6 mph - N/A   Clear
7:15 PM 51.3 °F - 30.7 °F 45% 30.13 in 10.0 mi South 5.8 mph - N/A   Clear
7:35 PM 51.1 °F - 30.9 °F 46% 30.13 in 10.0 mi South 6.9 mph - N/A   Clear
7:36 PM 51.1 °F - 31.1 °F 46% 30.13 in 10.0 mi South 6.9 mph - N/A   Clear
7:47 PM 50.0 °F - 32.0 °F 50% 30.13 in 10.0 mi South 5.8 mph - N/A   Clear
7:55 PM 50.4 °F - 31.1 °F 48% 30.13 in 10.0 mi South 5.8 mph - N/A   Clear
8:15 PM 49.5 °F - 31.6 °F 50% 30.14 in 10.0 mi South 5.8 mph - N/A   Clear
8:16 PM 49.5 °F - 31.6 °F 50% 30.14 in 10.0 mi South 5.8 mph - N/A   Clear
8:35 PM 50.0 °F - 31.5 °F 49% 30.15 in 10.0 mi South 6.9 mph - N/A   Clear
8:55 PM 50.0 °F - 31.6 °F 49% 30.15 in 10.0 mi South 6.9 mph - N/A   Clear
8:56 PM 50.0 °F - 31.6 °F 49% 30.15 in 10.0 mi South 5.8 mph - N/A   Clear
9:15 PM 49.1 °F - 31.8 °F 51% 30.15 in 10.0 mi South 5.8 mph - N/A   Clear
9:35 PM 48.9 °F - 31.8 °F 52% 30.15 in 10.0 mi South 5.8 mph - N/A   Clear
9:55 PM 48.2 °F - 32.0 °F 54% 30.16 in 10.0 mi South 6.9 mph - N/A   Clear
10:15 PM 48.2 °F - 32.0 °F 54% 30.16 in 10.0 mi South 6.9 mph - N/A   Clear
10:35 PM 48.2 °F - 32.0 °F 54% 30.17 in 10.0 mi South 6.9 mph - N/A   Clear
10:55 PM 48.2 °F - 32.0 °F 54% 30.17 in 10.0 mi South 6.9 mph - N/A   Clear
10:56 PM 48.2 °F - 32.0 °F 54% 30.17 in 10.0 mi South 6.9 mph - N/A   Clear
11:15 PM 48.2 °F - 32.0 °F 54% 30.17 in 10.0 mi South 6.9 mph - N/A   Clear
11:35 PM 48.2 °F - 32.0 °F 54% 30.17 in 10.0 mi SSW 8.1 mph - N/A   Clear
11:36 PM 48.2 °F - 32.0 °F 54% 30.17 in 10.0 mi SSW 6.9 mph - N/A   Clear
11:55 PM 48.2 °F - 32.0 °F 54% 30.17 in 10.0 mi SSW 8.1 mph - N/A   Clear
11:56 PM 48.2 °F - 32.0 °F 54% 30.17 in 10.0 mi SSW 6.9 mph - N/A   Clear